User: anonymous
Location: Fisheating Creek Campgrounds
(26.9333°N, 81.3167°W)
Time: 06:11:02
(UTC-04:00)
Language:

Cosmos 2221 Rocket - Orbit

View from above orbital plane
View from above orbital plane
View from above satellite
View from above satellite

Ground track
Ground track

The orbit data is extracted from the following two-line orbital elements,

1 22237U 92080B   14264.75627564  .00000201  00000-0  24777-4 0  4454
2 22237 082.5129 327.2393 0019071 229.2435 266.9209 14.77902543175794
Epoch (UTC): 21 September 2014 18:09:02
Eccentricity: 0.0019071
inclination: 82.5129°
perigee height: 622 km
apogee height: 649 km
right ascension of ascending node: 327.2393°
argument of perigee: 229.2435°
revolutions per day: 14.77902543
mean anomaly at epoch: 266.9209°
orbit number at epoch: 17579

The dashed part of the orbit path shows where the satellite is in the earth's shadow,  

DLR